• In Belarus
  • List of Countries
  • For 7 days
  • Water Temperature
  • Weather Map
  • Weather Widgets
  • user-avatar
    Login

    Hourly Weather Erdenetsagaan

    Today, 20 August, Tuesday

    Time Temperature Precipitation Wind Pressure Humidity
    00:00 +17°C° 0.2 mm 2 mps 664 mmHg 86%
    01:00 +17°C° 0.2 mm 3 mps 664 mmHg 85%
    02:00 +17°C° 0 mm 4 mps 664 mmHg 85%
    03:00 +15°C° 0.6 mm 4 mps 664 mmHg 87%
    04:00 +15°C° 0.6 mm 4 mps 663 mmHg 89%
    05:00 +15°C° 0.6 mm 4 mps 663 mmHg 91%
    06:00 +15°C° 1.1 mm 4 mps 663 mmHg 91%
    07:00 +15°C° 1.1 mm 4 mps 663 mmHg 90%
    08:00 +17°C° 0 mm 3 mps 663 mmHg 89%
    09:00 +17°C° 0.6 mm 4 mps 663 mmHg 84%
    10:00 +17°C° 0.6 mm 4 mps 663 mmHg 79%
    11:00 +18°C° 0.6 mm 4 mps 662 mmHg 74%
    12:00 +19°C° 0.4 mm 5 mps 662 mmHg 68%
    13:00 +20°C° 0.4 mm 6 mps 662 mmHg 63%
    14:00 +21°C° 0.4 mm 7 mps 662 mmHg 57%
    15:00 +20°C° 1 mm 7 mps 662 mmHg 60%
    16:00 +18°C° 1 mm 7 mps 662 mmHg 64%
    17:00 +17°C° 1 mm 7 mps 662 mmHg 68%
    18:00 +16°C° 0.5 mm 7 mps 662 mmHg 71%
    19:00 +14°C° 0.5 mm 7 mps 663 mmHg 75%
    20:00 +12°C° 0.5 mm 7 mps 663 mmHg 79%
    21:00 +12°C° 0 mm 7 mps 663 mmHg 80%
    22:00 +11°C° 0 mm 7 mps 664 mmHg 80%
    23:00 +11°C° 0 mm 8 mps 664 mmHg 80%

    Tomorrow, 21 August, Wednesday

    Time Temperature Precipitation Wind Pressure Humidity
    00:00 +11°C° 0 mm 8 mps 664 mmHg 79%
    01:00 +11°C° 0 mm 8 mps 664 mmHg 78%
    02:00 +10°C° 0 mm 8 mps 664 mmHg 77%
    03:00 +10°C° 0 mm 8 mps 664 mmHg 77%
    04:00 +10°C° 0 mm 8 mps 665 mmHg 77%
    05:00 +9°C° 0 mm 8 mps 665 mmHg 77%
    06:00 +10°C° 0 mm 8 mps 665 mmHg 73%
    07:00 +11°C° 0 mm 8 mps 666 mmHg 69%
    08:00 +12°C° 0 mm 9 mps 666 mmHg 65%
    09:00 +13°C° 0 mm 9 mps 666 mmHg 59%
    10:00 +16°C° 0 mm 9 mps 666 mmHg 54%
    11:00 +17°C° 0 mm 9 mps 667 mmHg 48%
    12:00 +18°C° 0 mm 9 mps 666 mmHg 45%
    13:00 +19°C° 0 mm 9 mps 666 mmHg 43%
    14:00 +21°C° 0 mm 10 mps 666 mmHg 41%
    15:00 +19°C° 0 mm 9 mps 666 mmHg 42%
    16:00 +19°C° 0 mm 9 mps 666 mmHg 43%
    17:00 +19°C° 0 mm 9 mps 667 mmHg 44%
    18:00 +18°C° 0 mm 7 mps 667 mmHg 48%
    19:00 +16°C° 0 mm 6 mps 667 mmHg 53%
    20:00 +15°C° 0 mm 5 mps 667 mmHg 58%
    21:00 +14°C° 0 mm 5 mps 667 mmHg 61%
    22:00 +13°C° 0 mm 5 mps 667 mmHg 64%
    23:00 +12°C° 0 mm 4 mps 667 mmHg 67%

    Day after tomorrow, 22 August, Thursday

    Time Temperature Precipitation Wind Pressure Humidity
    00:00 +11°C° 0 mm 4 mps 667 mmHg 71%
    01:00 +11°C° 0 mm 4 mps 666 mmHg 74%
    02:00 +10°C° 0 mm 4 mps 666 mmHg 77%
    03:00 +10°C° 0 mm 4 mps 666 mmHg 80%
    04:00 +10°C° 0 mm 4 mps 667 mmHg 83%
    05:00 +8°C° 0 mm 4 mps 667 mmHg 85%
    06:00 +9°C° 0 mm 5 mps 667 mmHg 80%
    07:00 +11°C° 0 mm 6 mps 668 mmHg 75%
    08:00 +12°C° 0 mm 7 mps 668 mmHg 70%
    09:00 +14°C° 0 mm 7 mps 668 mmHg 64%
    10:00 +16°C° 0 mm 7 mps 669 mmHg 58%
    11:00 +17°C° 0 mm 7 mps 669 mmHg 53%
    12:00 +18°C° 0 mm 8 mps 669 mmHg 49%
    13:00 +20°C° 0 mm 8 mps 669 mmHg 46%
    14:00 +21°C° 0 mm 8 mps 668 mmHg 43%
    15:00 +21°C° 0 mm 7 mps 668 mmHg 44%
    16:00 +20°C° 0 mm 7 mps 668 mmHg 44%
    17:00 +20°C° 0 mm 7 mps 668 mmHg 45%
    18:00 +17°C° 0 mm 5 mps 668 mmHg 52%
    19:00 +15°C° 0 mm 4 mps 668 mmHg 60%
    20:00 +13°C° 0 mm 3 mps 668 mmHg 67%
    21:00 +14°C° 0 mm 2 mps 668 mmHg 72%
    22:00 +13°C° 0 mm 2 mps 668 mmHg 77%
    23:00 +12°C° 0 mm 2 mps 668 mmHg 82%

    23 August, Friday

    Time Temperature Precipitation Wind Pressure Humidity
    00:00 +11°C° 0 mm 1 mps 668 mmHg 83%
    01:00 +11°C° 0 mm 1 mps 668 mmHg 85%
    02:00 +10°C° 0 mm 1 mps 667 mmHg 87%
    03:00 +10°C° 0 mm 1 mps 668 mmHg 87%
    04:00 +10°C° 0 mm 1 mps 668 mmHg 86%
    05:00 +9°C° 0 mm 2 mps 668 mmHg 86%
    06:00 +12°C° 0 mm 2 mps 669 mmHg 79%
    07:00 +14°C° 0 mm 2 mps 669 mmHg 72%
    08:00 +16°C° 0 mm 3 mps 670 mmHg 65%
    09:00 +17°C° 0 mm 3 mps 670 mmHg 58%
    10:00 +19°C° 0 mm 4 mps 671 mmHg 51%
    11:00 +20°C° 0 mm 4 mps 671 mmHg 44%
    12:00 +21°C° 0 mm 4 mps 671 mmHg 41%
    13:00 +22°C° 0 mm 4 mps 670 mmHg 39%
    14:00 +22°C° 0 mm 4 mps 670 mmHg 36%
    15:00 +22°C° 0 mm 4 mps 670 mmHg 37%
    16:00 +22°C° 0 mm 4 mps 670 mmHg 37%
    17:00 +22°C° 0 mm 4 mps 669 mmHg 38%
    18:00 +20°C° 0 mm 4 mps 669 mmHg 45%
    19:00 +17°C° 0 mm 3 mps 669 mmHg 52%
    20:00 +14°C° 0 mm 3 mps 668 mmHg 59%
    21:00 +15°C° 0 mm 2 mps 669 mmHg 62%
    22:00 +14°C° 0 mm 2 mps 669 mmHg 64%
    23:00 +14°C° 0 mm 2 mps 669 mmHg 67%

    24 August, Saturday

    Time Temperature Precipitation Wind Pressure Humidity
    00:00 +14°C° 0 mm 2 mps 669 mmHg 68%
    01:00 +13°C° 0 mm 2 mps 669 mmHg 70%
    02:00 +12°C° 0 mm 3 mps 669 mmHg 71%
    03:00 +12°C° 0 mm 3 mps 669 mmHg 70%
    04:00 +12°C° 0 mm 3 mps 668 mmHg 70%
    05:00 +12°C° 0 mm 3 mps 668 mmHg 70%
    06:00 +14°C° 0 mm 3 mps 669 mmHg 65%
    07:00 +16°C° 0 mm 3 mps 670 mmHg 59%
    08:00 +18°C° 0 mm 3 mps 670 mmHg 54%
    09:00 +20°C° 0 mm 2 mps 670 mmHg 49%
    10:00 +21°C° 0 mm 2 mps 670 mmHg 44%
    11:00 +24°C° 0 mm 1 mps 670 mmHg 40%
    12:00 +25°C° 0 mm 1 mps 670 mmHg 38%
    13:00 +26°C° 0 mm 1 mps 670 mmHg 36%
    14:00 +26°C° 0 mm 2 mps 670 mmHg 34%
    15:00 +25°C° 0.1 mm 2 mps 669 mmHg 40%
    16:00 +24°C° 0.1 mm 3 mps 668 mmHg 46%
    17:00 +21°C° 0.1 mm 4 mps 668 mmHg 52%
    18:00 +20°C° 0.1 mm 3 mps 668 mmHg 59%
    19:00 +18°C° 0.1 mm 3 mps 668 mmHg 66%
    20:00 +17°C° 0.1 mm 2 mps 668 mmHg 73%
    21:00 +17°C° 0.2 mm 2 mps 668 mmHg 73%
    22:00 +17°C° 0.2 mm 2 mps 668 mmHg 73%
    23:00 +17°C° 0.2 mm 2 mps 668 mmHg 73%

    25 August, Sunday

    Time Temperature Precipitation Wind Pressure Humidity
    00:00 +16°C° 0.2 mm 2 mps 667 mmHg 72%
    01:00 +16°C° 0.2 mm 3 mps 667 mmHg 72%
    02:00 +16°C° 0.2 mm 3 mps 667 mmHg 71%
    03:00 +16°C° 0.3 mm 3 mps 667 mmHg 73%
    04:00 +15°C° 0.3 mm 2 mps 667 mmHg 74%
    05:00 +15°C° 0.3 mm 2 mps 667 mmHg 75%
    06:00 +16°C° 0.2 mm 1 mps 667 mmHg 72%
    07:00 +18°C° 0.2 mm 1 mps 667 mmHg 70%
    08:00 +19°C° 0.2 mm 1 mps 667 mmHg 67%
    09:00 +21°C° 0 mm 1 mps 667 mmHg 61%
    10:00 +22°C° 0 mm 1 mps 667 mmHg 56%
    11:00 +24°C° 0 mm 1 mps 668 mmHg 51%
    12:00 +25°C° 0 mm 1 mps 667 mmHg 47%
    13:00 +26°C° 0 mm 2 mps 667 mmHg 44%
    14:00 +27°C° 0 mm 2 mps 667 mmHg 41%
    15:00 +27°C° 0 mm 3 mps 667 mmHg 42%
    16:00 +27°C° 0 mm 3 mps 666 mmHg 43%
    17:00 +27°C° 0 mm 4 mps 666 mmHg 44%
    18:00 +25°C° 0 mm 4 mps 666 mmHg 51%
    19:00 +22°C° 0 mm 4 mps 665 mmHg 58%
    20:00 +20°C° 0 mm 5 mps 665 mmHg 65%
    21:00 +19°C° 0 mm 4 mps 665 mmHg 66%
    22:00 +18°C° 0 mm 4 mps 664 mmHg 68%
    23:00 +18°C° 0 mm 4 mps 664 mmHg 69%
    Show more